Time,TemperatureF,DewpointF,PressureIn,WindDirection,WindDirectionDegrees,WindSpeedMPH,WindSpeedGustMPH,Humidity,HourlyPrecipIn,Conditions,Clouds,dailyrainin,SoftwareType,DateUTC
2013-01-22 00:04:00,-0.5,-6.8,30.44,West,278,6.0,8.0,74,0.00,,,0.00,Wunderground v.1.15,2013-01-22 06:04:00,
2013-01-22 00:09:00,-0.5,-6.8,30.44,West,279,8.0,8.0,74,0.00,,,0.00,Wunderground v.1.15,2013-01-22 06:09:00,
2013-01-22 00:15:00,-0.6,-6.9,30.44,West,279,6.0,6.0,74,0.00,,,0.00,Wunderground v.1.15,2013-01-22 06:15:00,
2013-01-22 00:20:00,-0.7,-6.7,30.44,West,279,4.0,7.0,75,0.00,,,0.00,Wunderground v.1.15,2013-01-22 06:20:00,
2013-01-22 00:26:00,-0.8,-6.8,30.44,West,279,5.0,6.0,75,0.00,,,0.00,Wunderground v.1.15,2013-01-22 06:26:00,
2013-01-22 00:31:00,-0.9,-6.9,30.44,West,279,4.0,5.0,75,0.00,,,0.00,Wunderground v.1.15,2013-01-22 06:31:00,
2013-01-22 00:37:00,-1.0,-7.0,30.44,West,279,4.0,5.0,75,0.00,,,0.00,Wunderground v.1.15,2013-01-22 06:37:00,
2013-01-22 00:42:00,-1.0,-7.0,30.44,West,279,5.0,5.0,75,0.00,,,0.00,Wunderground v.1.15,2013-01-22 06:42:00,
2013-01-22 00:48:00,-1.1,-7.1,30.44,West,279,3.0,5.0,75,0.00,,,0.00,Wunderground v.1.15,2013-01-22 06:48:00,
2013-01-22 00:54:00,-1.3,-7.3,30.44,West,279,2.0,4.0,75,0.00,,,0.00,Wunderground v.1.15,2013-01-22 06:54:00,
2013-01-22 00:59:00,-1.4,-7.4,30.44,West,279,3.0,4.0,75,0.00,,,0.00,Wunderground v.1.15,2013-01-22 06:59:00,
2013-01-22 01:05:00,-1.3,-7.0,30.44,West,279,3.0,4.0,76,0.00,,,0.00,Wunderground v.1.15,2013-01-22 07:05:00,
2013-01-22 01:11:00,-1.2,-6.9,30.45,West,279,2.0,3.0,76,0.00,,,0.00,Wunderground v.1.15,2013-01-22 07:11:00,
2013-01-22 01:16:00,-1.4,-7.1,30.44,West,279,2.0,3.0,76,0.00,,,0.00,Wunderground v.1.15,2013-01-22 07:16:00,
2013-01-22 01:22:00,-1.8,-7.5,30.44,West,279,3.0,3.0,76,0.00,,,0.00,Wunderground v.1.15,2013-01-22 07:22:00,
2013-01-22 01:27:00,-1.8,-7.5,30.45,West,279,3.0,4.0,76,0.00,,,0.00,Wunderground v.1.15,2013-01-22 07:27:00,
2013-01-22 01:33:00,-1.6,-7.1,30.44,West,279,2.0,4.0,77,0.00,,,0.00,Wunderground v.1.15,2013-01-22 07:33:00,
2013-01-22 01:39:00,-1.3,-6.8,30.44,West,279,3.0,4.0,77,0.00,,,0.00,Wunderground v.1.15,2013-01-22 07:39:00,
2013-01-22 01:44:00,-1.2,-6.7,30.44,West,279,4.0,4.0,77,0.00,,,0.00,Wunderground v.1.15,2013-01-22 07:44:00,
2013-01-22 01:50:00,-0.9,-6.4,30.44,West,279,4.0,4.0,77,0.00,,,0.00,Wunderground v.1.15,2013-01-22 07:50:00,
2013-01-22 01:56:00,-0.7,-6.2,30.45,West,279,3.0,3.0,77,0.00,,,0.00,Wunderground v.1.15,2013-01-22 07:56:00,
2013-01-22 02:02:00,-0.6,-6.1,30.45,West,279,3.0,3.0,77,0.00,,,0.00,Wunderground v.1.15,2013-01-22 08:02:00,
2013-01-22 02:07:00,-0.6,-6.1,30.45,West,279,0.0,5.0,77,0.00,,,0.00,Wunderground v.1.15,2013-01-22 08:07:00,
2013-01-22 02:12:00,-0.8,-6.3,30.45,West,279,0.0,2.0,77,0.00,,,0.00,Wunderground v.1.15,2013-01-22 08:12:00,
2013-01-22 02:17:00,-0.9,-6.4,30.45,West,279,1.0,2.0,77,0.00,,,0.00,Wunderground v.1.15,2013-01-22 08:17:00,
2013-01-22 02:22:00,-1.2,-6.7,30.45,West,279,0.0,0.0,77,0.00,,,0.00,Wunderground v.1.15,2013-01-22 08:22:00,
2013-01-22 02:27:00,-1.4,-6.9,30.45,West,279,0.0,0.0,77,0.00,,,0.00,Wunderground v.1.15,2013-01-22 08:27:00,
2013-01-22 02:32:00,-1.4,-6.9,30.45,West,279,5.0,5.0,77,0.00,,,0.00,Wunderground v.1.15,2013-01-22 08:32:00,
2013-01-22 02:37:00,-1.0,-6.7,30.45,West,279,4.0,6.0,76,0.00,,,0.00,Wunderground v.1.15,2013-01-22 08:37:00,
2013-01-22 02:42:00,-0.8,-6.8,30.45,West,280,6.0,6.0,75,0.00,,,0.00,Wunderground v.1.15,2013-01-22 08:42:00,
2013-01-22 02:47:00,-0.8,-6.8,30.45,West,281,5.0,6.0,75,0.00,,,0.00,Wunderground v.1.15,2013-01-22 08:47:00,
2013-01-22 02:52:00,-0.9,-7.2,30.45,WNW,282,3.0,4.0,74,0.00,,,0.00,Wunderground v.1.15,2013-01-22 08:52:00,
2013-01-22 02:57:00,-1.0,-7.3,30.45,WNW,282,4.0,5.0,74,0.00,,,0.00,Wunderground v.1.15,2013-01-22 08:57:00,
2013-01-22 03:02:00,-1.2,-7.8,30.45,WNW,282,5.0,5.0,73,0.00,,,0.00,Wunderground v.1.15,2013-01-22 09:02:00,
2013-01-22 03:07:00,-1.3,-7.9,30.45,West,281,2.0,5.0,73,0.00,,,0.00,Wunderground v.1.15,2013-01-22 09:07:00,
2013-01-22 03:12:00,-1.5,-8.1,30.45,West,281,3.0,4.0,73,0.00,,,0.00,Wunderground v.1.15,2013-01-22 09:12:00,
2013-01-22 03:17:00,-1.8,-8.3,30.45,WNW,282,3.0,4.0,73,0.00,,,0.00,Wunderground v.1.15,2013-01-22 09:17:00,
2013-01-22 03:22:00,-1.9,-8.4,30.45,WNW,282,3.0,4.0,73,0.00,,,0.00,Wunderground v.1.15,2013-01-22 09:22:00,
2013-01-22 03:27:00,-2.0,-8.5,30.45,West,281,3.0,5.0,73,0.00,,,0.00,Wunderground v.1.15,2013-01-22 09:27:00,
2013-01-22 03:32:00,-2.2,-8.7,30.45,WNW,282,3.0,3.0,73,0.00,,,0.00,Wunderground v.1.15,2013-01-22 09:32:00,
2013-01-22 03:37:00,-2.3,-8.8,30.45,West,281,3.0,5.0,73,0.00,,,0.00,Wunderground v.1.15,2013-01-22 09:37:00,
2013-01-22 03:42:00,-2.5,-9.0,30.45,WNW,282,0.0,3.0,73,0.00,,,0.00,Wunderground v.1.15,2013-01-22 09:42:00,
2013-01-22 03:47:00,-3.0,-9.5,30.45,WNW,282,0.0,3.0,73,0.00,,,0.00,Wunderground v.1.15,2013-01-22 09:47:00,
2013-01-22 03:52:00,-3.3,-9.8,30.45,WNW,282,0.0,0.0,73,0.00,,,0.00,Wunderground v.1.15,2013-01-22 09:52:00,
2013-01-22 03:57:00,-3.5,-9.7,30.44,WNW,282,0.0,0.0,74,0.00,,,0.00,Wunderground v.1.15,2013-01-22 09:57:00,
2013-01-22 04:02:00,-3.7,-9.9,30.44,WNW,282,0.0,0.0,74,0.00,,,0.00,Wunderground v.1.15,2013-01-22 10:02:00,
2013-01-22 04:07:00,-3.9,-10.1,30.44,WNW,282,0.0,0.0,74,0.00,,,0.00,Wunderground v.1.15,2013-01-22 10:07:00,
2013-01-22 04:12:00,-4.2,-10.4,30.44,West,281,0.0,0.0,74,0.00,,,0.00,Wunderground v.1.15,2013-01-22 10:12:00,
2013-01-22 04:17:00,-4.6,-10.8,30.44,WNW,282,0.0,0.0,74,0.00,,,0.00,Wunderground v.1.15,2013-01-22 10:17:00,
2013-01-22 04:23:00,-5.0,-11.2,30.44,WNW,282,0.0,0.0,74,0.00,,,0.00,Wunderground v.1.15,2013-01-22 10:23:00,
2013-01-22 04:28:00,-5.4,-11.6,30.44,WNW,282,0.0,0.0,74,0.00,,,0.00,Wunderground v.1.15,2013-01-22 10:28:00,
2013-01-22 04:33:00,-5.6,-11.5,30.44,WNW,282,0.0,0.0,75,0.00,,,0.00,Wunderground v.1.15,2013-01-22 10:33:00,
2013-01-22 04:38:00,-5.8,-11.7,30.44,WNW,282,0.0,0.0,75,0.00,,,0.00,Wunderground v.1.15,2013-01-22 10:38:00,
2013-01-22 04:43:00,-6.1,-12.0,30.45,WNW,282,0.0,0.0,75,0.00,,,0.00,Wunderground v.1.15,2013-01-22 10:43:00,
2013-01-22 04:48:00,-6.5,-12.4,30.45,WNW,282,0.0,0.0,75,0.00,,,0.00,Wunderground v.1.15,2013-01-22 10:48:00,
2013-01-22 04:53:00,-6.6,-12.5,30.44,West,281,0.0,0.0,75,0.00,,,0.00,Wunderground v.1.15,2013-01-22 10:53:00,
2013-01-22 04:58:00,-6.4,-12.0,30.44,West,281,0.0,0.0,76,0.00,,,0.00,Wunderground v.1.15,2013-01-22 10:58:00,
2013-01-22 05:03:00,-6.4,-12.0,30.44,West,281,0.0,0.0,76,0.00,,,0.00,Wunderground v.1.15,2013-01-22 11:03:00,
2013-01-22 05:08:00,-6.4,-12.0,30.45,West,281,0.0,0.0,76,0.00,,,0.00,Wunderground v.1.15,2013-01-22 11:08:00,
2013-01-22 05:13:00,-6.6,-12.2,30.44,WNW,283,0.0,0.0,76,0.00,,,0.00,Wunderground v.1.15,2013-01-22 11:13:00,
2013-01-22 05:18:00,-6.7,-12.3,30.44,WNW,283,0.0,0.0,76,0.00,,,0.00,Wunderground v.1.15,2013-01-22 11:18:00,
2013-01-22 05:23:00,-6.8,-12.4,30.44,WNW,282,0.0,0.0,76,0.00,,,0.00,Wunderground v.1.15,2013-01-22 11:23:00,
2013-01-22 05:28:00,-6.8,-12.4,30.44,WNW,282,0.0,0.0,76,0.00,,,0.00,Wunderground v.1.15,2013-01-22 11:28:00,
2013-01-22 05:33:00,-6.6,-11.9,30.44,WNW,283,0.0,0.0,77,0.00,,,0.00,Wunderground v.1.15,2013-01-22 11:33:00,
2013-01-22 05:38:00,-6.3,-11.9,30.44,WNW,282,0.0,0.0,76,0.00,,,0.00,Wunderground v.1.15,2013-01-22 11:38:00,
2013-01-22 05:43:00,-6.5,-12.1,30.45,West,281,0.0,0.0,76,0.00,,,0.00,Wunderground v.1.15,2013-01-22 11:43:00,
2013-01-22 05:48:00,-6.8,-12.6,30.45,WNW,282,0.0,0.0,75,0.00,,,0.00,Wunderground v.1.15,2013-01-22 11:48:00,
2013-01-22 05:53:00,-7.2,-13.0,30.45,WNW,282,0.0,0.0,75,0.00,,,0.00,Wunderground v.1.15,2013-01-22 11:53:00,
2013-01-22 05:58:00,-7.4,-13.0,30.44,WNW,282,0.0,0.0,76,0.00,,,0.00,Wunderground v.1.15,2013-01-22 11:58:00,
2013-01-22 06:03:00,-7.4,-13.0,30.45,West,281,0.0,0.0,76,0.00,,,0.00,Wunderground v.1.15,2013-01-22 12:03:00,
2013-01-22 06:08:00,-7.5,-13.1,30.44,WNW,282,0.0,0.0,76,0.00,,,0.00,Wunderground v.1.15,2013-01-22 12:08:00,
2013-01-22 06:13:00,-7.7,-13.3,30.44,WNW,282,0.0,0.0,76,0.00,,,0.00,Wunderground v.1.15,2013-01-22 12:13:00,
2013-01-22 06:18:00,-7.7,-13.3,30.44,WNW,282,0.0,0.0,76,0.00,,,0.00,Wunderground v.1.15,2013-01-22 12:18:00,
2013-01-22 06:23:00,-7.8,-13.4,30.45,WNW,282,0.0,0.0,76,0.00,,,0.00,Wunderground v.1.15,2013-01-22 12:23:00,
2013-01-22 06:28:00,-8.0,-13.5,30.45,WNW,282,0.0,0.0,76,0.00,,,0.00,Wunderground v.1.15,2013-01-22 12:28:00,
2013-01-22 06:33:00,-8.2,-13.7,30.45,West,281,0.0,0.0,76,0.00,,,0.00,Wunderground v.1.15,2013-01-22 12:33:00,
2013-01-22 06:38:00,-8.3,-13.8,30.45,WNW,282,0.0,0.0,76,0.00,,,0.00,Wunderground v.1.15,2013-01-22 12:38:00,
2013-01-22 06:43:00,-8.1,-13.4,30.46,West,281,0.0,0.0,77,0.00,,,0.00,Wunderground v.1.15,2013-01-22 12:43:00,
2013-01-22 06:48:00,-7.7,-13.0,30.45,WNW,282,0.0,0.0,77,0.00,,,0.00,Wunderground v.1.15,2013-01-22 12:48:00,
2013-01-22 06:53:00,-7.4,-12.7,30.45,WNW,282,0.0,0.0,77,0.00,,,0.00,Wunderground v.1.15,2013-01-22 12:53:00,
2013-01-22 06:59:00,-6.9,-12.0,30.46,WNW,283,0.0,0.0,78,0.00,,,0.00,Wunderground v.1.15,2013-01-22 12:59:00,
2013-01-22 07:04:00,-6.3,-11.4,30.46,WNW,282,0.0,0.0,78,0.00,,,0.00,Wunderground v.1.15,2013-01-22 13:04:00,
2013-01-22 07:09:00,-5.2,-10.0,30.46,WNW,283,0.0,0.0,79,0.00,,,0.00,Wunderground v.1.15,2013-01-22 13:09:00,
2013-01-22 07:14:00,-4.4,-9.3,30.46,WNW,282,0.0,0.0,79,0.00,,,0.00,Wunderground v.1.15,2013-01-22 13:14:00,
2013-01-22 07:19:00,-3.9,-8.8,30.46,WNW,282,0.0,0.0,79,0.00,,,0.00,Wunderground v.1.15,2013-01-22 13:19:00,
2013-01-22 07:24:00,-3.4,-8.3,30.46,WNW,282,0.0,0.0,79,0.00,,,0.00,Wunderground v.1.15,2013-01-22 13:24:00,
2013-01-22 07:29:00,-2.8,-7.7,30.46,West,281,0.0,0.0,79,0.00,,,0.00,Wunderground v.1.15,2013-01-22 13:29:00,
2013-01-22 07:34:00,-2.4,-7.3,30.45,West,281,0.0,0.0,79,0.00,,,0.00,Wunderground v.1.15,2013-01-22 13:34:00,
2013-01-22 07:39:00,-1.9,-7.1,30.46,West,281,0.0,0.0,78,0.00,,,0.00,Wunderground v.1.15,2013-01-22 13:39:00,
2013-01-22 07:44:00,-1.7,-6.9,30.45,WNW,282,0.0,0.0,78,0.00,,,0.00,Wunderground v.1.15,2013-01-22 13:44:00,
2013-01-22 07:49:00,-1.6,-7.1,30.45,WNW,282,0.0,0.0,77,0.00,,,0.00,Wunderground v.1.15,2013-01-22 13:49:00,
2013-01-22 07:54:00,-1.4,-6.9,30.45,WNW,282,0.0,0.0,77,0.00,,,0.00,Wunderground v.1.15,2013-01-22 13:54:00,
2013-01-22 07:59:00,-1.3,-6.8,30.45,West,281,0.0,0.0,77,0.00,,,0.00,Wunderground v.1.15,2013-01-22 13:59:00,
2013-01-22 08:04:00,-1.2,-6.7,30.46,WNW,282,0.0,0.0,77,0.00,,,0.00,Wunderground v.1.15,2013-01-22 14:04:00,
2013-01-22 08:09:00,-1.0,-6.7,30.46,West,281,0.0,0.0,76,0.00,,,0.00,Wunderground v.1.15,2013-01-22 14:09:00,
2013-01-22 08:14:00,-0.8,-6.5,30.45,West,281,0.0,0.0,76,0.00,,,0.00,Wunderground v.1.15,2013-01-22 14:14:00,
2013-01-22 08:19:00,-0.6,-6.6,30.45,WNW,282,0.0,0.0,75,0.00,,,0.00,Wunderground v.1.15,2013-01-22 14:19:00,
2013-01-22 08:24:00,-0.5,-6.5,30.45,WNW,282,0.0,0.0,75,0.00,,,0.00,Wunderground v.1.15,2013-01-22 14:24:00,
2013-01-22 08:29:00,-0.3,-6.6,30.45,WNW,282,0.0,0.0,74,0.00,,,0.00,Wunderground v.1.15,2013-01-22 14:29:00,
2013-01-22 08:34:00,-0.2,-6.5,30.45,West,281,0.0,0.0,74,0.00,,,0.00,Wunderground v.1.15,2013-01-22 14:34:00,
2013-01-22 08:39:00,-0.1,-6.4,30.45,WNW,282,0.0,0.0,74,0.00,,,0.00,Wunderground v.1.15,2013-01-22 14:39:00,
2013-01-22 08:44:00,0.0,-6.3,30.45,WNW,282,0.0,0.0,74,0.00,,,0.00,Wunderground v.1.15,2013-01-22 14:44:00,
2013-01-22 08:49:00,0.2,-6.4,30.46,WNW,282,0.0,0.0,73,0.00,,,0.00,Wunderground v.1.15,2013-01-22 14:49:00,
2013-01-22 08:54:00,0.5,-6.1,30.46,West,281,0.0,0.0,73,0.00,,,0.00,Wunderground v.1.15,2013-01-22 14:54:00,
2013-01-22 08:59:00,0.7,-5.9,30.46,WNW,282,0.0,0.0,73,0.00,,,0.00,Wunderground v.1.15,2013-01-22 14:59:00,
2013-01-22 09:04:00,1.0,-5.6,30.46,WNW,282,0.0,0.0,73,0.00,,,0.00,Wunderground v.1.15,2013-01-22 15:04:00,
2013-01-22 09:09:00,1.2,-5.7,30.46,West,281,4.0,5.0,72,0.00,,,0.00,Wunderground v.1.15,2013-01-22 15:09:00,
2013-01-22 09:14:00,1.4,-5.8,30.47,WNW,282,3.0,5.0,71,0.00,,,0.00,Wunderground v.1.15,2013-01-22 15:14:00,
2013-01-22 09:19:00,1.6,-5.9,30.47,WNW,282,3.0,6.0,70,0.00,,,0.00,Wunderground v.1.15,2013-01-22 15:19:00,
2013-01-22 09:24:00,1.7,-6.1,30.46,West,281,2.0,5.0,69,0.00,,,0.00,Wunderground v.1.15,2013-01-22 15:24:00,
2013-01-22 09:29:00,1.6,-6.2,30.46,WNW,282,2.0,5.0,69,0.00,,,0.00,Wunderground v.1.15,2013-01-22 15:29:00,
2013-01-22 09:34:00,2.3,-5.0,30.46,West,281,3.0,4.0,71,0.00,,,0.00,Wunderground v.1.15,2013-01-22 15:34:00,
2013-01-22 09:39:00,2.6,-5.0,30.47,WNW,282,4.0,6.0,70,0.00,,,0.00,Wunderground v.1.15,2013-01-22 15:39:00,
2013-01-22 09:44:00,2.8,-5.1,30.47,WNW,282,4.0,5.0,69,0.00,,,0.00,Wunderground v.1.15,2013-01-22 15:44:00,
2013-01-22 09:50:00,2.7,-5.5,30.47,West,281,4.0,6.0,68,0.00,,,0.00,Wunderground v.1.15,2013-01-22 15:50:00,
2013-01-22 09:55:00,2.7,-5.8,30.47,WNW,282,4.0,5.0,67,0.00,,,0.00,Wunderground v.1.15,2013-01-22 15:55:00,
2013-01-22 10:00:00,2.9,-5.6,30.47,WNW,282,0.0,5.0,67,0.00,,,0.00,Wunderground v.1.15,2013-01-22 16:00:00,
2013-01-22 10:05:00,3.0,-5.5,30.47,WNW,282,2.0,6.0,67,0.00,,,0.00,Wunderground v.1.15,2013-01-22 16:05:00,
2013-01-22 10:10:00,3.1,-5.7,30.48,WNW,282,1.0,6.0,66,0.00,,,0.00,Wunderground v.1.15,2013-01-22 16:10:00,
2013-01-22 10:15:00,3.4,-5.1,30.48,WNW,282,1.0,5.0,67,0.00,,,0.00,Wunderground v.1.15,2013-01-22 16:15:00,
2013-01-22 10:20:00,3.7,-5.1,30.48,WNW,282,4.0,6.0,66,0.00,,,0.00,Wunderground v.1.15,2013-01-22 16:20:00,
2013-01-22 10:25:00,3.7,-5.1,30.48,West,281,6.0,7.0,66,0.00,,,0.00,Wunderground v.1.15,2013-01-22 16:25:00,
2013-01-22 10:30:00,3.7,-5.1,30.49,West,279,2.0,8.0,66,0.00,,,0.00,Wunderground v.1.15,2013-01-22 16:30:00,
2013-01-22 10:35:00,4.0,-4.5,30.49,West,279,1.0,5.0,67,0.00,,,0.00,Wunderground v.1.15,2013-01-22 16:35:00,
2013-01-22 10:40:00,4.0,-4.5,30.49,West,275,7.0,8.0,67,0.00,,,0.00,Wunderground v.1.15,2013-01-22 16:40:00,
2013-01-22 10:45:00,4.0,-4.5,30.49,West,272,5.0,8.0,67,0.00,,,0.00,Wunderground v.1.15,2013-01-22 16:45:00,
2013-01-22 10:50:00,4.2,-4.3,30.49,West,272,2.0,8.0,67,0.00,,,0.00,Wunderground v.1.15,2013-01-22 16:50:00,
2013-01-22 10:55:00,4.3,-4.2,30.48,West,265,4.0,9.0,67,0.00,,,0.00,Wunderground v.1.15,2013-01-22 16:55:00,
2013-01-22 11:00:00,4.5,-4.4,30.48,WSW,256,2.0,9.0,66,0.00,,,0.00,Wunderground v.1.15,2013-01-22 17:00:00,
2013-01-22 11:05:00,5.0,-3.6,30.49,WSW,256,4.0,8.0,67,0.00,,,0.00,Wunderground v.1.15,2013-01-22 17:05:00,
2013-01-22 11:10:00,5.5,-3.1,30.49,WSW,252,6.0,8.0,67,0.00,,,0.00,Wunderground v.1.15,2013-01-22 17:10:00,
2013-01-22 11:15:00,5.9,-3.0,30.48,WSW,250,4.0,8.0,66,0.00,,,0.00,Wunderground v.1.15,2013-01-22 17:15:00,
2013-01-22 11:20:00,6.0,-2.9,30.47,WSW,251,1.0,8.0,66,0.00,,,0.00,Wunderground v.1.15,2013-01-22 17:20:00,
2013-01-22 11:25:00,6.0,-3.3,30.47,WSW,247,1.0,8.0,65,0.00,,,0.00,Wunderground v.1.15,2013-01-22 17:25:00,
2013-01-22 11:30:00,6.3,-2.6,30.47,WSW,247,4.0,8.0,66,0.00,,,0.00,Wunderground v.1.15,2013-01-22 17:30:00,
2013-01-22 11:35:00,6.3,-3.3,30.47,WSW,247,5.0,8.0,64,0.00,,,0.00,Wunderground v.1.15,2013-01-22 17:35:00,
2013-01-22 11:40:00,6.5,-2.8,30.47,WSW,247,2.0,8.0,65,0.00,,,0.00,Wunderground v.1.15,2013-01-22 17:40:00,
2013-01-22 11:45:00,6.8,-2.8,30.46,WSW,247,5.0,6.0,64,0.00,,,0.00,Wunderground v.1.15,2013-01-22 17:45:00,
2013-01-22 11:50:00,7.2,-2.4,30.46,WSW,249,5.0,7.0,64,0.00,,,0.00,Wunderground v.1.15,2013-01-22 17:50:00,
2013-01-22 11:55:00,7.2,-2.1,30.45,WSW,249,2.0,8.0,65,0.00,,,0.00,Wunderground v.1.15,2013-01-22 17:55:00,
2013-01-22 12:00:00,7.3,-2.0,30.46,WSW,250,6.0,8.0,65,0.00,,,0.00,Wunderground v.1.15,2013-01-22 18:00:00,
2013-01-22 12:05:00,7.6,-2.1,30.45,WSW,250,6.0,7.0,64,0.00,,,0.00,Wunderground v.1.15,2013-01-22 18:05:00,
2013-01-22 12:10:00,7.7,-2.0,30.46,WSW,248,6.0,8.0,64,0.00,,,0.00,Wunderground v.1.15,2013-01-22 18:10:00,
2013-01-22 12:15:00,7.9,-1.4,30.46,WSW,248,9.0,9.0,65,0.00,,,0.00,Wunderground v.1.15,2013-01-22 18:15:00,
2013-01-22 12:20:00,7.9,-1.8,30.45,WSW,250,8.0,10.0,64,0.00,,,0.00,Wunderground v.1.15,2013-01-22 18:20:00,
2013-01-22 12:25:00,8.1,-1.6,30.45,WSW,245,5.0,8.0,64,0.00,,,0.00,Wunderground v.1.15,2013-01-22 18:25:00,
2013-01-22 12:30:00,8.2,-1.5,30.45,WSW,254,4.0,10.0,64,0.00,,,0.00,Wunderground v.1.15,2013-01-22 18:30:00,
2013-01-22 12:35:00,8.2,-1.5,30.44,WSW,253,8.0,10.0,64,0.00,,,0.00,Wunderground v.1.15,2013-01-22 18:35:00,
2013-01-22 12:40:00,8.5,-0.9,30.44,WSW,251,8.0,10.0,65,0.00,,,0.00,Wunderground v.1.15,2013-01-22 18:40:00,
2013-01-22 12:45:00,8.8,-0.9,30.44,WSW,247,6.0,9.0,64,0.00,,,0.00,Wunderground v.1.15,2013-01-22 18:45:00,
2013-01-22 12:50:00,8.8,-0.9,30.43,WSW,246,7.0,9.0,64,0.00,,,0.00,Wunderground v.1.15,2013-01-22 18:50:00,
2013-01-22 12:56:00,9.1,-0.6,30.43,WSW,249,5.0,11.0,64,0.00,,,0.00,Wunderground v.1.15,2013-01-22 18:56:00,
2013-01-22 13:01:00,9.3,-0.4,30.43,WSW,257,2.0,11.0,64,0.00,,,0.00,Wunderground v.1.15,2013-01-22 19:01:00,
2013-01-22 13:06:00,9.2,-0.5,30.42,WSW,257,2.0,8.0,64,0.00,,,0.00,Wunderground v.1.15,2013-01-22 19:06:00,
2013-01-22 13:11:00,9.4,-0.3,30.42,WSW,257,5.0,8.0,64,0.00,,,0.00,Wunderground v.1.15,2013-01-22 19:11:00,
2013-01-22 13:16:00,9.5,0.1,30.41,WSW,252,6.0,9.0,65,0.00,,,0.00,Wunderground v.1.15,2013-01-22 19:16:00,
2013-01-22 13:21:00,9.3,-0.1,30.41,WSW,239,6.0,6.0,65,0.00,,,0.00,Wunderground v.1.15,2013-01-22 19:21:00,
2013-01-22 13:26:00,9.4,0.0,30.41,WSW,237,4.0,9.0,65,0.00,,,0.00,Wunderground v.1.15,2013-01-22 19:26:00,
2013-01-22 13:31:00,9.8,0.4,30.41,WSW,237,8.0,8.0,65,0.00,,,0.00,Wunderground v.1.15,2013-01-22 19:31:00,
2013-01-22 13:36:00,9.9,0.1,30.41,WSW,238,6.0,8.0,64,0.00,,,0.00,Wunderground v.1.15,2013-01-22 19:36:00,
2013-01-22 13:41:00,9.9,0.5,30.41,WSW,238,3.0,5.0,65,0.00,,,0.00,Wunderground v.1.15,2013-01-22 19:41:00,
2013-01-22 13:46:00,10.0,0.6,30.41,WSW,250,6.0,8.0,65,0.00,,,0.00,Wunderground v.1.15,2013-01-22 19:46:00,
2013-01-22 13:51:00,10.1,0.0,30.41,WSW,238,6.0,9.0,63,0.00,,,0.00,Wunderground v.1.15,2013-01-22 19:51:00,
2013-01-22 13:56:00,10.2,0.4,30.41,WSW,238,6.0,9.0,64,0.00,,,0.00,Wunderground v.1.15,2013-01-22 19:56:00,
2013-01-22 14:01:00,10.6,0.5,30.41,WSW,242,3.0,6.0,63,0.00,,,0.00,Wunderground v.1.15,2013-01-22 20:01:00,
2013-01-22 14:06:00,10.3,0.2,30.41,WSW,244,10.0,10.0,63,0.00,,,0.00,Wunderground v.1.15,2013-01-22 20:06:00,
2013-01-22 14:11:00,10.3,0.2,30.41,WSW,244,3.0,7.0,63,0.00,,,0.00,Wunderground v.1.15,2013-01-22 20:11:00,
2013-01-22 14:17:00,10.2,0.4,30.40,WSW,245,8.0,10.0,64,0.00,,,0.00,Wunderground v.1.15,2013-01-22 20:17:00,
2013-01-22 14:22:00,10.3,0.2,30.40,WSW,244,3.0,9.0,63,0.00,,,0.00,Wunderground v.1.15,2013-01-22 20:22:00,
2013-01-22 14:27:00,10.4,0.3,30.40,WSW,244,6.0,9.0,63,0.00,,,0.00,Wunderground v.1.15,2013-01-22 20:27:00,
2013-01-22 14:32:00,10.6,0.5,30.39,WSW,242,2.0,6.0,63,0.00,,,0.00,Wunderground v.1.15,2013-01-22 20:32:00,
2013-01-22 14:37:00,10.8,0.7,30.39,WSW,245,4.0,8.0,63,0.00,,,0.00,Wunderground v.1.15,2013-01-22 20:37:00,
2013-01-22 14:42:00,10.9,0.8,30.40,WSW,246,6.0,8.0,63,0.00,,,0.00,Wunderground v.1.15,2013-01-22 20:42:00,
2013-01-22 14:47:00,10.8,0.3,30.40,WSW,246,5.0,9.0,62,0.00,,,0.00,Wunderground v.1.15,2013-01-22 20:47:00,
2013-01-22 14:52:00,11.0,0.2,30.39,WSW,245,7.0,8.0,61,0.00,,,0.00,Wunderground v.1.15,2013-01-22 20:52:00,
2013-01-22 14:57:00,11.0,0.5,30.39,WSW,246,2.0,8.0,62,0.00,,,0.00,Wunderground v.1.15,2013-01-22 20:57:00,
2013-01-22 15:02:00,11.3,0.8,30.39,WSW,242,3.0,9.0,62,0.00,,,0.00,Wunderground v.1.15,2013-01-22 21:02:00,
2013-01-22 15:07:00,11.6,0.7,30.39,WSW,241,5.0,9.0,61,0.00,,,0.00,Wunderground v.1.15,2013-01-22 21:07:00,
2013-01-22 15:13:00,11.8,0.9,30.39,WSW,242,4.0,7.0,61,0.00,,,0.00,Wunderground v.1.15,2013-01-22 21:13:00,
2013-01-22 15:18:00,11.6,0.4,30.39,WSW,242,3.0,8.0,60,0.00,,,0.00,Wunderground v.1.15,2013-01-22 21:18:00,
2013-01-22 15:23:00,11.5,0.3,30.38,WSW,246,2.0,7.0,60,0.00,,,0.00,Wunderground v.1.15,2013-01-22 21:23:00,
2013-01-22 15:28:00,11.3,0.1,30.38,WSW,246,6.0,7.0,60,0.00,,,0.00,Wunderground v.1.15,2013-01-22 21:28:00,
2013-01-22 15:33:00,11.4,0.5,30.38,WSW,246,7.0,7.0,61,0.00,,,0.00,Wunderground v.1.15,2013-01-22 21:33:00,
2013-01-22 15:38:00,11.5,0.3,30.38,WSW,246,2.0,9.0,60,0.00,,,0.00,Wunderground v.1.15,2013-01-22 21:38:00,
2013-01-22 15:43:00,11.9,1.0,30.38,WSW,246,5.0,9.0,61,0.00,,,0.00,Wunderground v.1.15,2013-01-22 21:43:00,
2013-01-22 15:49:00,11.7,0.8,30.38,WSW,247,6.0,9.0,61,0.00,,,0.00,Wunderground v.1.15,2013-01-22 21:49:00,
2013-01-22 15:54:00,11.6,0.4,30.38,WSW,247,3.0,7.0,60,0.00,,,0.00,Wunderground v.1.15,2013-01-22 21:54:00,
2013-01-22 15:59:00,11.4,0.5,30.38,WSW,246,5.0,7.0,61,0.00,,,0.00,Wunderground v.1.15,2013-01-22 21:59:00,
2013-01-22 16:04:00,11.1,0.3,30.38,WSW,247,1.0,6.0,61,0.00,,,0.00,Wunderground v.1.15,2013-01-22 22:04:00,
2013-01-22 16:09:00,10.9,0.1,30.38,WSW,247,6.0,6.0,61,0.00,,,0.00,Wunderground v.1.15,2013-01-22 22:09:00,
2013-01-22 16:14:00,10.8,0.0,30.38,WSW,246,1.0,3.0,61,0.00,,,0.00,Wunderground v.1.15,2013-01-22 22:14:00,
2013-01-22 16:19:00,10.7,0.2,30.37,WSW,247,1.0,4.0,62,0.00,,,0.00,Wunderground v.1.15,2013-01-22 22:19:00,
2013-01-22 16:24:00,10.7,0.6,30.37,WSW,246,0.0,3.0,63,0.00,,,0.00,Wunderground v.1.15,2013-01-22 22:24:00,
2013-01-22 16:29:00,10.7,0.6,30.37,WSW,247,0.0,3.0,63,0.00,,,0.00,Wunderground v.1.15,2013-01-22 22:29:00,
2013-01-22 16:34:00,10.7,0.6,30.37,WSW,247,0.0,1.0,63,0.00,,,0.00,Wunderground v.1.15,2013-01-22 22:34:00,
2013-01-22 16:39:00,10.7,0.6,30.37,WSW,247,0.0,1.0,63,0.00,,,0.00,Wunderground v.1.15,2013-01-22 22:39:00,
2013-01-22 16:44:00,10.8,1.0,30.37,WSW,246,0.0,0.0,64,0.00,,,0.00,Wunderground v.1.15,2013-01-22 22:44:00,
2013-01-22 16:49:00,11.0,1.5,30.37,WSW,247,2.0,7.0,65,0.00,,,0.00,Wunderground v.1.15,2013-01-22 22:49:00,
2013-01-22 16:54:00,11.0,1.5,30.37,WSW,247,5.0,6.0,65,0.00,,,0.00,Wunderground v.1.15,2013-01-22 22:54:00,
2013-01-22 16:59:00,11.0,1.2,30.37,WSW,246,3.0,6.0,64,0.00,,,0.00,Wunderground v.1.15,2013-01-22 22:59:00,
2013-01-22 17:04:00,11.0,1.2,30.37,WSW,247,1.0,4.0,64,0.00,,,0.00,Wunderground v.1.15,2013-01-22 23:04:00,
2013-01-22 17:09:00,11.0,1.5,30.37,WSW,247,3.0,5.0,65,0.00,,,0.00,Wunderground v.1.15,2013-01-22 23:09:00,
2013-01-22 17:14:00,10.8,1.3,30.37,WSW,246,2.0,4.0,65,0.00,,,0.00,Wunderground v.1.15,2013-01-22 23:14:00,
2013-01-22 17:19:00,10.8,1.3,30.37,WSW,247,1.0,4.0,65,0.00,,,0.00,Wunderground v.1.15,2013-01-22 23:19:00,
2013-01-22 17:24:00,10.7,1.6,30.37,WSW,247,0.0,3.0,66,0.00,,,0.00,Wunderground v.1.15,2013-01-22 23:24:00,
2013-01-22 17:29:00,10.8,2.0,30.37,WSW,247,3.0,5.0,67,0.00,,,0.00,Wunderground v.1.15,2013-01-22 23:29:00,
2013-01-22 17:34:00,10.8,1.7,30.37,WSW,247,1.0,3.0,66,0.00,,,0.00,Wunderground v.1.15,2013-01-22 23:34:00,
2013-01-22 17:39:00,10.9,2.1,30.37,WSW,246,0.0,3.0,67,0.00,,,0.00,Wunderground v.1.15,2013-01-22 23:39:00,
2013-01-22 17:44:00,10.9,2.4,30.37,WSW,247,2.0,6.0,68,0.00,,,0.00,Wunderground v.1.15,2013-01-22 23:44:00,
2013-01-22 17:49:00,10.9,2.4,30.37,WSW,247,5.0,7.0,68,0.00,,,0.00,Wunderground v.1.15,2013-01-22 23:49:00,
2013-01-22 17:54:00,10.8,2.3,30.37,WSW,246,4.0,6.0,68,0.00,,,0.00,Wunderground v.1.15,2013-01-22 23:54:00,
2013-01-22 17:59:00,10.8,2.6,30.37,WSW,247,1.0,6.0,69,0.00,,,0.00,Wunderground v.1.15,2013-01-22 23:59:00,
2013-01-22 18:04:00,10.8,2.3,30.37,WSW,246,4.0,5.0,68,0.00,,,0.00,Wunderground v.1.15,2013-01-23 00:04:00,
2013-01-22 18:09:00,10.7,2.2,30.37,WSW,247,1.0,5.0,68,0.00,,,0.00,Wunderground v.1.15,2013-01-23 00:09:00,
2013-01-22 18:15:00,10.7,2.5,30.36,WSW,246,4.0,5.0,69,0.00,,,0.00,Wunderground v.1.15,2013-01-23 00:15:00,
2013-01-22 18:20:00,10.7,2.2,30.36,WSW,246,1.0,5.0,68,0.00,,,0.00,Wunderground v.1.15,2013-01-23 00:20:00,
2013-01-22 18:25:00,10.7,2.2,30.36,WSW,247,2.0,4.0,68,0.00,,,0.00,Wunderground v.1.15,2013-01-23 00:25:00,
2013-01-22 18:30:00,10.8,2.6,30.36,WSW,246,4.0,6.0,69,0.00,,,0.00,Wunderground v.1.15,2013-01-23 00:30:00,
2013-01-22 18:35:00,10.8,2.6,30.36,WSW,247,4.0,6.0,69,0.00,,,0.00,Wunderground v.1.15,2013-01-23 00:35:00,
2013-01-22 18:40:00,10.8,2.6,30.36,WSW,247,5.0,7.0,69,0.00,,,0.00,Wunderground v.1.15,2013-01-23 00:40:00,
2013-01-22 18:45:00,10.8,2.6,30.36,WSW,246,3.0,6.0,69,0.00,,,0.00,Wunderground v.1.15,2013-01-23 00:45:00,
2013-01-22 18:50:00,10.8,2.9,30.36,WSW,246,3.0,7.0,70,0.00,,,0.00,Wunderground v.1.15,2013-01-23 00:50:00,
2013-01-22 18:55:00,10.8,2.9,30.36,WSW,247,3.0,6.0,70,0.00,,,0.00,Wunderground v.1.15,2013-01-23 00:55:00,
2013-01-22 19:00:00,10.8,3.2,30.36,WSW,246,6.0,7.0,71,0.00,,,0.00,Wunderground v.1.15,2013-01-23 01:00:00,
2013-01-22 19:05:00,10.8,2.9,30.36,WSW,246,2.0,8.0,70,0.00,,,0.00,Wunderground v.1.15,2013-01-23 01:05:00,
2013-01-22 19:10:00,10.8,3.2,30.35,WSW,246,2.0,8.0,71,0.00,,,0.00,Wunderground v.1.15,2013-01-23 01:10:00,
2013-01-22 19:15:00,10.8,3.2,30.35,WSW,244,7.0,7.0,71,0.00,,,0.00,Wunderground v.1.15,2013-01-23 01:15:00,
2013-01-22 19:20:00,10.8,3.2,30.35,WSW,242,5.0,8.0,71,0.00,,,0.00,Wunderground v.1.15,2013-01-23 01:20:00,
2013-01-22 19:25:00,10.8,3.2,30.35,WSW,241,6.0,7.0,71,0.00,,,0.00,Wunderground v.1.15,2013-01-23 01:25:00,
2013-01-22 19:30:00,10.8,3.5,30.35,WSW,242,1.0,7.0,72,0.00,,,0.00,Wunderground v.1.15,2013-01-23 01:30:00,
2013-01-22 19:35:00,10.8,3.5,30.35,WSW,242,4.0,6.0,72,0.00,,,0.00,Wunderground v.1.15,2013-01-23 01:35:00,
2013-01-22 19:40:00,10.8,3.5,30.35,WSW,242,3.0,6.0,72,0.00,,,0.00,Wunderground v.1.15,2013-01-23 01:40:00,
2013-01-22 19:45:00,10.8,3.5,30.35,WSW,242,3.0,4.0,72,0.00,,,0.00,Wunderground v.1.15,2013-01-23 01:45:00,
2013-01-22 19:50:00,10.8,3.5,30.35,WSW,241,5.0,7.0,72,0.00,,,0.00,Wunderground v.1.15,2013-01-23 01:50:00,
2013-01-22 19:55:00,10.8,3.8,30.34,WSW,241,5.0,7.0,73,0.00,,,0.00,Wunderground v.1.15,2013-01-23 01:55:00,
2013-01-22 20:00:00,10.8,3.8,30.34,SW,230,9.0,11.0,73,0.00,,,0.00,Wunderground v.1.15,2013-01-23 02:00:00,
2013-01-22 20:05:00,10.9,4.2,30.34,SW,228,7.0,8.0,74,0.00,,,0.00,Wunderground v.1.15,2013-01-23 02:05:00,
2013-01-22 20:10:00,10.9,4.2,30.34,SW,225,5.0,8.0,74,0.00,,,0.00,Wunderground v.1.15,2013-01-23 02:10:00,
2013-01-22 20:15:00,10.9,4.2,30.34,SW,224,4.0,9.0,74,0.00,,,0.00,Wunderground v.1.15,2013-01-23 02:15:00,
2013-01-22 20:20:00,10.9,4.5,30.34,SW,225,6.0,9.0,75,0.00,,,0.00,Wunderground v.1.15,2013-01-23 02:20:00,
2013-01-22 20:25:00,11.0,4.6,30.33,SW,224,2.0,8.0,75,0.00,,,0.00,Wunderground v.1.15,2013-01-23 02:25:00,
2013-01-22 20:30:00,11.0,4.6,30.33,SW,219,7.0,10.0,75,0.00,,,0.00,Wunderground v.1.15,2013-01-23 02:30:00,
2013-01-22 20:35:00,11.0,4.6,30.33,SW,219,4.0,6.0,75,0.00,,,0.00,Wunderground v.1.15,2013-01-23 02:35:00,
2013-01-22 20:40:00,11.0,4.6,30.33,SW,219,2.0,6.0,75,0.00,,,0.00,Wunderground v.1.15,2013-01-23 02:40:00,
2013-01-22 20:45:00,11.0,4.6,30.33,SW,217,5.0,8.0,75,0.00,,,0.00,Wunderground v.1.15,2013-01-23 02:45:00,
2013-01-22 20:50:00,11.0,4.6,30.33,SW,217,5.0,8.0,75,0.00,,,0.00,Wunderground v.1.15,2013-01-23 02:50:00,
2013-01-22 20:55:00,11.0,4.3,30.33,SW,215,2.0,8.0,74,0.00,,,0.00,Wunderground v.1.15,2013-01-23 02:55:00,
2013-01-22 21:00:00,11.0,4.3,30.32,SW,214,4.0,8.0,74,0.00,,,0.00,Wunderground v.1.15,2013-01-23 03:00:00,
2013-01-22 21:05:00,11.0,4.3,30.32,SW,215,4.0,8.0,74,0.00,,,0.00,Wunderground v.1.15,2013-01-23 03:05:00,
2013-01-22 21:10:00,11.0,4.3,30.32,SW,215,3.0,8.0,74,0.00,,,0.00,Wunderground v.1.15,2013-01-23 03:10:00,
2013-01-22 21:15:00,11.0,4.3,30.32,SW,214,4.0,9.0,74,0.00,,,0.00,Wunderground v.1.15,2013-01-23 03:15:00,
2013-01-22 21:20:00,11.0,4.3,30.32,SW,214,4.0,9.0,74,0.00,,,0.00,Wunderground v.1.15,2013-01-23 03:20:00,
2013-01-22 21:26:00,11.1,4.4,30.32,SW,214,3.0,9.0,74,0.00,,,0.00,Wunderground v.1.15,2013-01-23 03:26:00,
2013-01-22 21:31:00,11.2,4.5,30.32,SW,214,3.0,9.0,74,0.00,,,0.00,Wunderground v.1.15,2013-01-23 03:31:00,
2013-01-22 21:36:00,11.2,4.5,30.32,SSW,212,5.0,7.0,74,0.00,,,0.00,Wunderground v.1.15,2013-01-23 03:36:00,
2013-01-22 21:41:00,11.2,4.5,30.32,SSW,212,5.0,5.0,74,0.00,,,0.00,Wunderground v.1.15,2013-01-23 03:41:00,
2013-01-22 21:46:00,11.3,4.6,30.31,SSW,211,6.0,7.0,74,0.00,,,0.00,Wunderground v.1.15,2013-01-23 03:46:00,
2013-01-22 21:51:00,11.3,4.6,30.31,SSW,209,6.0,7.0,74,0.00,,,0.00,Wunderground v.1.15,2013-01-23 03:51:00,
2013-01-22 21:56:00,11.3,4.6,30.31,SSW,207,7.0,8.0,74,0.00,,,0.00,Wunderground v.1.15,2013-01-23 03:56:00,
2013-01-22 22:01:00,11.4,4.7,30.30,SSW,205,5.0,6.0,74,0.00,,,0.00,Wunderground v.1.15,2013-01-23 04:01:00,
2013-01-22 22:06:00,11.5,5.1,30.29,SSW,204,7.0,8.0,75,0.00,,,0.00,Wunderground v.1.15,2013-01-23 04:06:00,
2013-01-22 22:11:00,11.5,5.1,30.30,SSW,194,6.0,7.0,75,0.00,,,0.00,Wunderground v.1.15,2013-01-23 04:11:00,
2013-01-22 22:16:00,11.6,5.2,30.30,SSW,194,5.0,8.0,75,0.00,,,0.00,Wunderground v.1.15,2013-01-23 04:16:00,
2013-01-22 22:21:00,11.7,5.3,30.30,SSW,194,3.0,6.0,75,0.00,,,0.00,Wunderground v.1.15,2013-01-23 04:21:00,
2013-01-22 22:26:00,11.7,5.6,30.30,SSW,194,5.0,10.0,76,0.00,,,0.00,Wunderground v.1.15,2013-01-23 04:26:00,
2013-01-22 22:32:00,11.8,5.7,30.30,SSW,194,5.0,6.0,76,0.00,,,0.00,Wunderground v.1.15,2013-01-23 04:32:00,
2013-01-22 22:37:00,11.8,5.7,30.30,SSW,194,6.0,10.0,76,0.00,,,0.00,Wunderground v.1.15,2013-01-23 04:37:00,
2013-01-22 22:42:00,11.9,6.1,30.30,SSW,194,3.0,6.0,77,0.00,,,0.00,Wunderground v.1.15,2013-01-23 04:42:00,
2013-01-22 22:47:00,12.0,6.2,30.30,SSW,194,7.0,10.0,77,0.00,,,0.00,Wunderground v.1.15,2013-01-23 04:47:00,
2013-01-22 22:52:00,12.1,6.3,30.30,SSW,194,7.0,9.0,77,0.00,,,0.00,Wunderground v.1.15,2013-01-23 04:52:00,
2013-01-22 22:57:00,12.2,6.4,30.30,SSW,194,9.0,9.0,77,0.00,,,0.00,Wunderground v.1.15,2013-01-23 04:57:00,
2013-01-22 23:00:00,12.3,6.5,30.30,SSW,195,8.0,10.0,77,0.00,,,0.00,Wunderground v.1.15,2013-01-23 05:00:00,
2013-01-22 23:03:00,12.3,6.7,30.29,SSW,195,7.0,8.0,78,0.00,,,0.00,Wunderground v.1.15,2013-01-23 05:03:00,
2013-01-22 23:08:00,12.4,6.8,30.28,SSW,194,12.0,12.0,78,0.00,,,0.00,Wunderground v.1.15,2013-01-23 05:08:00,
2013-01-22 23:13:00,12.5,6.9,30.28,SSW,194,5.0,9.0,78,0.00,,,0.00,Wunderground v.1.15,2013-01-23 05:13:00,
2013-01-22 23:18:00,12.5,6.9,30.29,SSW,202,9.0,12.0,78,0.00,,,0.00,Wunderground v.1.15,2013-01-23 05:18:00,
2013-01-22 23:23:00,12.6,7.0,30.29,SSW,205,6.0,11.0,78,0.00,,,0.00,Wunderground v.1.15,2013-01-23 05:23:00,
2013-01-22 23:28:00,12.7,7.1,30.28,SSW,202,3.0,11.0,78,0.00,,,0.00,Wunderground v.1.15,2013-01-23 05:28:00,
2013-01-22 23:33:00,12.8,7.2,30.28,SSW,205,7.0,11.0,78,0.00,,,0.00,Wunderground v.1.15,2013-01-23 05:33:00,
2013-01-22 23:38:00,12.8,7.2,30.28,SSW,207,6.0,13.0,78,0.00,,,0.00,Wunderground v.1.15,2013-01-23 05:38:00,
2013-01-22 23:43:00,12.9,7.3,30.29,SSW,210,7.0,11.0,78,0.00,,,0.00,Wunderground v.1.15,2013-01-23 05:43:00,
2013-01-22 23:48:00,13.0,7.4,30.28,SSW,211,7.0,11.0,78,0.00,,,0.00,Wunderground v.1.15,2013-01-23 05:48:00,
2013-01-22 23:54:00,13.0,7.4,30.28,SW,221,5.0,13.0,78,0.00,,,0.00,Wunderground v.1.15,2013-01-23 05:54:00,
2013-01-22 23:59:00,13.0,7.4,30.28,SW,215,10.0,13.0,78,0.00,,,0.00,Wunderground v.1.15,2013-01-23 05:59:00,